Regional Weather Roundup
Issued by NWS

Home | Current Version | Previous Version | Text Only | Print | Product List | Glossary On
Versions: 1 2 3 4 5 6 7 8 9 10 11 12 13 14 15 16 17 18 19 20 21 22 23 24 25 26 27 28 29 30 31 32 33 34 35 36 37 38 39 40 41 42 43 44 45 46 47 48 49 50
000
ASUS43 KBIS 181910
RWRND

NORTH DAKOTA REGIONAL WEATHER ROUNDUP
NATIONAL WEATHER SERVICE BISMARCK ND
200 PM CDT WED OCT 18 2017

NOTE: "FAIR" INDICATES FEW OR NO CLOUDS BELOW 12,000 FEET WITH NO
SIGNIFICANT WEATHER AND/OR OBSTRUCTIONS TO VISIBILITY.


NDZ001>003-009>011-017-182000-
NORTHWEST NORTH DAKOTA

CITY           SKY/WX    TMP DP  RH WIND       PRES   REMARKS
WILLISTON      SUNNY     54  23  30 W18G29    29.96F
MINOT          SUNNY     57  19  22 W28G40    29.88S
MINOT AFB      SUNNY     55  19  24 W28G38    29.85S
$$

NDZ018>021-031>035-040>046-182000-
SOUTHWEST NORTH DAKOTA

CITY           SKY/WX    TMP DP  RH WIND       PRES   REMARKS
BISMARCK       SUNNY     58  21  24 W20G28    29.97F
DICKINSON      SUNNY     55  22  27 W15G23    29.99F
GARRISON         N/A     55  19  24 W25G35    29.93F
HETTINGER ARPT SUNNY     57  20  23 W13G21    30.04F
$$

NDZ004>008-012>016-024-026-027-054-182000-
NORTHEAST NORTH DAKOTA

CITY           SKY/WX    TMP DP  RH WIND       PRES   REMARKS
GRAND FORKS    MOSUNNY   62  15  16 W28G44    29.78F
GRND FRKS AFB  SUNNY     60  14  16 W28G36    29.79F
DEVILS LAKE    SUNNY     55  15  20 W30G41    29.80F
$$

NDZ022-023-025-028>030-036>039-047>053-182000-
SOUTHEAST NORTH DAKOTA

CITY           SKY/WX    TMP DP  RH WIND       PRES   REMARKS
FARGO          CLOUDY    63  13  14 W28G36    29.85F
JAMESTOWN      CLOUDY    57  15  19 NW25G33   29.91R
$$




USA.gov is the U.S. government's official web portal to all federal, state and local government web resources and services.